Location: Newark
(34.1333°N, 7.9667°W)
Time: 22:20:56
(UTC+00:00)

N. Korean satellite - Pass Details

Date: 27 September 2021
Orbit: 450 x 495 km, 97.3° (Epoch: 21 October)

Event Time Altitude Azimuth Distance (km) Brightness Sun altitude
Rises 05:45:37 0° 10° (N) 2,536 10.4 -8.7°
Reaches altitude 10° 05:47:40 10° 10° (N) 1,661 9.5 -8.3°
Maximum altitude 05:51:14 85° 282° (WNW) 492 6.5 -7.5°
Drops below altitude 10° 05:54:51 10° 194° (SSW) 1,672 9.1 -6.8°
Sets 05:56:55 0° 194° (SSW) 2,554 10.1 -6.3°
